Location: *
(46.4000°N, 12.6667°E)
Time: 23:32:15
(UTC+00:00)

USA 234 - Pass Details

Date: 09 April 2020
Orbit: 1102 x 1106 km, 123.0° (Epoch: 14 May)

Event Time Altitude Azimuth Distance (km) Brightness Sun altitude
Rises 23:16:33 0° 62° (ENE) 3,923 6.5 -35.6°
Reaches altitude 10° 23:19:13 10° 54° (NE) 2,965 5.9 -35.5°
Maximum altitude 23:25:06 38° 350° (N) 1,635 4.5 -35.5°
Drops below altitude 10° 23:31:00 10° 286° (WNW) 2,964 5.6 -35.4°
Sets 23:33:39 0° 279° (W) 3,922 6.2 -35.3°
